| time (UTC) | temp F | wind direction | speed MPH | gust MPH | rain 1hr in | rain 24hr in | rain mn in | humidity % | barometer mb |
| 20260510192003 | 62 | 252 | 6.0 | 12.0 | 0.00 | 0.00 | 0.00 | 41 | 1016.4 |
| 20260510191003 | 63 | 197 | 3.0 | 10.0 | 0.00 | 0.00 | 0.00 | 37 | 1016.4 |
| 20260510190214 | 62 | 195 | 2.0 | 8.0 | 0.00 | 0.00 | 0.00 | 38 | 1016.5 |
| 20260510185003 | 62 | 185 | 3.0 | 10.0 | 0.00 | 0.00 | 0.00 | 36 | 1016.5 |
| 20260510184003 | 62 | 191 | 3.0 | 9.0 | 0.00 | 0.00 | 0.00 | 38 | 1016.5 |
| 20260510183003 | 61 | 232 | 4.0 | 9.0 | 0.00 | 0.00 | 0.00 | 39 | 1016.5 |
| 20260510182003 | 61 | 199 | 3.0 | 7.0 | 0.00 | 0.00 | 0.00 | 39 | 1016.6 |
| 20260510181213 | 61 | 188 | 4.0 | 9.0 | 0.00 | 0.00 | 0.00 | 40 | 1016.5 |
| 20260510180003 | 60 | 139 | 4.0 | 9.0 | 0.00 | 0.00 | 0.00 | 46 | 1016.7 |
| 20260510175213 | 61 | 155 | 4.0 | 11.0 | 0.00 | 0.00 | 0.00 | 45 | 1016.7 |
| 20260510174003 | 61 | 217 | 3.0 | 9.0 | 0.00 | 0.00 | 0.00 | 41 | 1016.5 |
| 20260510173003 | 61 | 142 | 5.0 | 8.0 | 0.00 | 0.00 | 0.00 | 43 | 1016.7 |
| 20260510172003 | 61 | 154 | 3.0 | 7.0 | 0.00 | 0.00 | 0.00 | 43 | 1016.6 |
| 20260510171003 | 60 | 128 | 2.0 | 6.0 | 0.00 | 0.00 | 0.00 | 44 | 1016.5 |
| 20260510170003 | 60 | 128 | 1.0 | 5.0 | 0.00 | 0.00 | 0.00 | 46 | 1016.4 |
| 20260510165003 | 59 | 98 | 0.0 | 3.0 | 0.00 | 0.00 | 0.00 | 46 | 1016.2 |
| 20260510164003 | 58 | 107 | 1.0 | 5.0 | 0.00 | 0.00 | 0.00 | 47 | 1016.3 |
| 20260510163003 | 58 | 121 | 0.0 | 3.0 | 0.00 | 0.00 | 0.00 | 48 | 1016.6 |
| 20260510162003 | 59 | 142 | 0.0 | 3.0 | 0.00 | 0.00 | 0.00 | 47 | 1016.6 |
| 20260510161003 | 59 | 117 | 0.0 | 3.0 | 0.00 | 0.00 | 0.00 | 46 | 1016.8 |
| 20260510160215 | 59 | 0 | 0.0 | 0.0 | 0.00 | 0.00 | 0.00 | 45 | 1016.7 |
| 20260510155003 | 57 | 122 | 0.0 | 1.0 | 0.00 | 0.00 | 0.00 | 49 | 1017.0 |
| 20260510154212 | 57 | 0 | 0.0 | 0.0 | 0.00 | 0.00 | 0.00 | 51 | 1016.9 |
| 20260510153003 | 57 | 0 | 0.0 | 0.0 | 0.00 | 0.00 | 0.00 | 49 | 1016.9 |
| 20260510152003 | 57 | 125 | 0.0 | 2.0 | 0.00 | 0.00 | 0.00 | 50 | 1016.8 |
| 20260510151003 | 57 | 0 | 0.0 | 0.0 | 0.00 | 0.00 | 0.00 | 52 | 1017.0 |
| 20260510150003 | 55 | 0 | 0.0 | 0.0 | 0.00 | 0.00 | 0.00 | 50 | 1017.0 |
| 20260510145003 | 53 | 0 | 0.0 | 0.0 | 0.00 | 0.00 | 0.00 | 60 | 1017.0 |
| 20260510144003 | 52 | 0 | 0.0 | 0.0 | 0.00 | 0.00 | 0.00 | 63 | 1017.0 |
| 20260510143004 | 51 | 0 | 0.0 | 0.0 | 0.00 | 0.00 | 0.00 | 63 | 1016.8 |
| 20260510142003 | 51 | 0 | 0.0 | 0.0 | 0.00 | 0.00 | 0.00 | 62 | 1016.8 |
| 20260510141003 | 50 | 333 | 1.0 | 3.0 | 0.00 | 0.00 | 0.00 | 62 | 1017.0 |
| 20260510140214 | 49 | 333 | 2.0 | 3.0 | 0.00 | 0.00 | 0.00 | 63 | 1016.9 |
| 20260510135003 | 48 | 333 | 3.0 | 4.0 | 0.00 | 0.00 | 0.00 | 63 | 1016.8 |
| 20260510134003 | 48 | 333 | 3.0 | 4.0 | 0.00 | 0.00 | 0.00 | 63 | 1016.8 |
| 20260510133003 | 48 | 332 | 3.0 | 4.0 | 0.00 | 0.00 | 0.00 | 62 | 1016.8 |
| 20260510132003 | 46 | 333 | 4.0 | 5.0 | 0.00 | 0.00 | 0.00 | 62 | 1016.8 |
| 20260510131003 | 46 | 334 | 4.0 | 6.0 | 0.00 | 0.00 | 0.00 | 62 | 1017.0 |
| 20260510130004 | 46 | 336 | 4.0 | 6.0 | 0.00 | 0.00 | 0.00 | 60 | 1017.1 |
| 20260510125003 | 46 | 336 | 4.0 | 5.0 | 0.00 | 0.00 | 0.00 | 60 | 1017.1 |
| 20260510124003 | 45 | 335 | 4.0 | 5.0 | 0.00 | 0.00 | 0.00 | 60 | 1017.1 |
| 20260510123003 | 46 | 335 | 4.0 | 5.0 | 0.00 | 0.00 | 0.00 | 59 | 1016.9 |
| 20260510122003 | 46 | 332 | 3.0 | 5.0 | 0.00 | 0.00 | 0.00 | 58 | 1016.9 |
| 20260510121004 | 45 | 332 | 4.0 | 5.0 | 0.00 | 0.00 | 0.00 | 61 | 1016.8 |
| 20260510120004 | 44 | 334 | 5.0 | 6.0 | 0.00 | 0.00 | 0.00 | 62 | 1017.0 |
| 20260510115003 | 45 | 337 | 5.0 | 6.0 | 0.00 | 0.00 | 0.00 | 60 | 1017.1 |
| 20260510114003 | 46 | 336 | 5.0 | 5.0 | 0.00 | 0.00 | 0.00 | 59 | 1017.3 |
| 20260510113003 | 46 | 334 | 4.0 | 5.0 | 0.00 | 0.00 | 0.00 | 58 | 1017.3 |
| 20260510112003 | 46 | 334 | 4.0 | 5.0 | 0.00 | 0.00 | 0.00 | 60 | 1017.3 |
| 20260510111003 | 45 | 337 | 5.0 | 6.0 | 0.00 | 0.00 | 0.00 | 61 | 1017.4 |
| 20260510110213 | 46 | 336 | 5.0 | 6.0 | 0.00 | 0.00 | 0.00 | 61 | 1017.5 |
| 20260510105003 | 46 | 335 | 4.0 | 5.0 | 0.00 | 0.00 | 0.00 | 61 | 1017.6 |
| 20260510104004 | 46 | 334 | 4.0 | 6.0 | 0.00 | 0.00 | 0.00 | 61 | 1017.6 |
| 20260510103215 | 46 | 333 | 4.0 | 6.0 | 0.00 | 0.00 | 0.00 | 59 | 1017.6 |
| 20260510102003 | 47 | 332 | 4.0 | 5.0 | 0.00 | 0.00 | 0.00 | 59 | 1017.7 |
| 20260510101003 | 47 | 332 | 4.0 | 5.0 | 0.00 | 0.00 | 0.00 | 58 | 1017.8 |
| 20260510100003 | 48 | 332 | 3.0 | 4.0 | 0.00 | 0.00 | 0.00 | 57 | 1017.9 |
| 20260510095004 | 48 | 332 | 3.0 | 4.0 | 0.00 | 0.00 | 0.00 | 57 | 1018.0 |
| 20260510094214 | 48 | 332 | 3.0 | 5.0 | 0.00 | 0.00 | 0.00 | 57 | 1018.0 |
| 20260510093214 | 48 | 332 | 4.0 | 5.0 | 0.00 | 0.00 | 0.00 | 58 | 1018.1 |
| 20260510092214 | 47 | 332 | 3.0 | 5.0 | 0.00 | 0.00 | 0.00 | 59 | 1018.2 |
| 20260510091214 | 47 | 332 | 3.0 | 5.0 | 0.00 | 0.00 | 0.00 | 59 | 1018.3 |
| 20260510090004 | 47 | 331 | 4.0 | 6.0 | 0.00 | 0.00 | 0.00 | 59 | 1018.4 |
| 20260510085214 | 48 | 330 | 3.0 | 5.0 | 0.00 | 0.00 | 0.00 | 58 | 1018.4 |
| 20260510084003 | 50 | 330 | 2.0 | 4.0 | 0.00 | 0.00 | 0.00 | 55 | 1018.4 |
| 20260510083214 | 50 | 330 | 3.0 | 4.0 | 0.00 | 0.00 | 0.00 | 56 | 1018.4 |
| 20260510082214 | 48 | 329 | 4.0 | 5.0 | 0.00 | 0.00 | 0.00 | 59 | 1018.4 |
| 20260510081213 | 48 | 329 | 3.0 | 5.0 | 0.00 | 0.00 | 0.00 | 59 | 1018.6 |
| 20260510080214 | 49 | 329 | 1.0 | 4.0 | 0.00 | 0.00 | 0.00 | 57 | 1018.7 |
| 20260510075213 | 49 | 329 | 2.0 | 4.0 | 0.00 | 0.00 | 0.00 | 58 | 1018.6 |
| 20260510074003 | 49 | 328 | 3.0 | 5.0 | 0.00 | 0.00 | 0.00 | 58 | 1018.6 |
| 20260510073003 | 49 | 328 | 2.0 | 4.0 | 0.00 | 0.00 | 0.00 | 56 | 1018.7 |
| 20260510072003 | 50 | 328 | 1.0 | 3.0 | 0.00 | 0.00 | 0.00 | 55 | 1018.7 |
| 20260510071003 | 50 | 328 | 2.0 | 3.0 | 0.00 | 0.00 | 0.00 | 55 | 1018.7 |
| 20260510070004 | 50 | 328 | 1.0 | 5.0 | 0.00 | 0.00 | 0.00 | 55 | 1018.6 |
| 20260510065213 | 49 | 328 | 3.0 | 4.0 | 0.00 | 0.00 | 0.00 | 55 | 1018.7 |
| 20260510064213 | 50 | 324 | 1.0 | 5.0 | 0.00 | 0.00 | 0.00 | 53 | 1018.8 |
| 20260510063003 | 50 | 320 | 3.0 | 5.0 | 0.00 | 0.00 | 0.00 | 52 | 1018.9 |
| 20260510062003 | 51 | 319 | 2.0 | 3.0 | 0.00 | 0.00 | 0.00 | 49 | 1019.0 |
| 20260510061003 | 51 | 317 | 1.0 | 4.0 | 0.00 | 0.00 | 0.00 | 49 | 1019.1 |
| 20260510060003 | 52 | 0 | 0.0 | 0.0 | 0.00 | 0.00 | 0.00 | 48 | 1019.2 |
| 20260510055003 | 52 | 0 | 0.0 | 0.0 | 0.00 | 0.00 | 0.00 | 48 | 1019.1 |
| 20260510054003 | 52 | 0 | 0.0 | 0.0 | 0.00 | 0.00 | 0.00 | 49 | 1019.3 |
| 20260510053003 | 52 | 0 | 0.0 | 0.0 | 0.00 | 0.00 | 0.00 | 49 | 1019.2 |
| 20260510052003 | 53 | 0 | 0.0 | 0.0 | 0.00 | 0.00 | 0.00 | 48 | 1019.3 |
| 20260510051003 | 53 | 316 | 0.0 | 1.0 | 0.00 | 0.00 | 0.00 | 49 | 1019.3 |
| 20260510050004 | 52 | 316 | 0.0 | 1.0 | 0.00 | 0.00 | 0.00 | 50 | 1019.3 |
| 20260510045003 | 53 | 0 | 0.0 | 0.0 | 0.00 | 0.00 | 0.00 | 49 | 1019.5 |
| 20260510044214 | 53 | 0 | 0.0 | 0.0 | 0.00 | 0.00 | 0.00 | 50 | 1019.5 |
| 20260510043003 | 53 | 0 | 0.0 | 0.0 | 0.00 | 0.00 | 0.00 | 50 | 1019.6 |
| 20260510042005 | 54 | 0 | 0.0 | 0.0 | 0.00 | 0.00 | 0.00 | 48 | 1019.5 |
| 20260510041003 | 54 | 0 | 0.0 | 0.0 | 0.00 | 0.00 | 0.00 | 48 | 1019.4 |
| 20260510040003 | 56 | 0 | 0.0 | 0.0 | 0.00 | 0.00 | 0.00 | 46 | 1019.3 |
| 20260510035003 | 56 | 0 | 0.0 | 0.0 | 0.00 | 0.00 | 0.00 | 45 | 1019.2 |
| 20260510034003 | 56 | 0 | 0.0 | 0.0 | 0.00 | 0.00 | 0.00 | 46 | 1019.2 |
| 20260510033004 | 56 | 0 | 0.0 | 0.0 | 0.00 | 0.00 | 0.00 | 46 | 1019.2 |
| 20260510032214 | 57 | 0 | 0.0 | 0.0 | 0.00 | 0.00 | 0.00 | 45 | 1019.1 |
| 20260510031003 | 57 | 0 | 0.0 | 0.0 | 0.00 | 0.00 | 0.00 | 44 | 1019.0 |
| 20260510030003 | 58 | 100 | 0.0 | 3.0 | 0.00 | 0.00 | 0.00 | 44 | 1019.0 |
| 20260510025003 | 58 | 0 | 0.0 | 0.0 | 0.00 | 0.00 | 0.00 | 43 | 1019.1 |
| 20260510024003 | 59 | 126 | 1.0 | 6.0 | 0.00 | 0.00 | 0.00 | 43 | 1019.0 |
| 20260510023003 | 59 | 131 | 1.0 | 4.0 | 0.00 | 0.00 | 0.00 | 42 | 1019.2 |
| 20260510022003 | 60 | 110 | 2.0 | 6.0 | 0.00 | 0.00 | 0.00 | 42 | 1019.1 |
| 20260510021003 | 60 | 107 | 4.0 | 8.0 | 0.00 | 0.00 | 0.00 | 42 | 1019.1 |
| 20260510020003 | 60 | 110 | 4.0 | 8.0 | 0.00 | 0.00 | 0.00 | 42 | 1019.0 |
| 20260510015003 | 60 | 108 | 4.0 | 7.0 | 0.00 | 0.00 | 0.00 | 41 | 1019.2 |
| 20260510014003 | 61 | 130 | 4.0 | 7.0 | 0.00 | 0.00 | 0.00 | 41 | 1019.5 |
| 20260510013003 | 61 | 140 | 4.0 | 7.0 | 0.00 | 0.00 | 0.00 | 39 | 1019.7 |
| 20260510012003 | 61 | 143 | 5.0 | 8.0 | 0.00 | 0.00 | 0.00 | 38 | 1019.7 |
| 20260510011213 | 61 | 146 | 5.0 | 10.0 | 0.00 | 0.00 | 0.00 | 38 | 1019.7 |
| 20260510010003 | 62 | 149 | 5.0 | 9.0 | 0.00 | 0.00 | 0.00 | 37 | 1019.8 |
| 20260510005003 | 62 | 114 | 3.0 | 7.0 | 0.00 | 0.00 | 0.00 | 37 | 1019.6 |
| 20260510004003 | 62 | 143 | 4.0 | 9.0 | 0.00 | 0.00 | 0.00 | 37 | 1019.7 |
| 20260510003004 | 62 | 132 | 4.0 | 9.0 | 0.00 | 0.00 | 0.00 | 37 | 1019.6 |
| 20260510002214 | 63 | 136 | 4.0 | 9.0 | 0.00 | 0.00 | 0.00 | 36 | 1019.8 |
| 20260510001215 | 63 | 157 | 4.0 | 9.0 | 0.00 | 0.00 | 0.00 | 36 | 1019.8 |
| 20260510000212 | 64 | 167 | 2.0 | 5.0 | 0.00 | 0.00 | 0.00 | 34 | 1019.7 |
| 20260509235003 | 64 | 158 | 3.0 | 9.0 | 0.00 | 0.00 | 0.00 | 35 | 1019.8 |
| 20260509234003 | 63 | 127 | 3.0 | 7.0 | 0.00 | 0.00 | 0.00 | 33 | 1019.8 |
| 20260509233003 | 64 | 148 | 3.0 | 8.0 | 0.00 | 0.00 | 0.00 | 33 | 1020.0 |
| 20260509232003 | 64 | 157 | 3.0 | 9.0 | 0.00 | 0.00 | 0.00 | 32 | 1020.0 |
| 20260509231003 | 64 | 151 | 3.0 | 7.0 | 0.00 | 0.00 | 0.00 | 32 | 1020.2 |
| 20260509230005 | 64 | 135 | 2.0 | 9.0 | 0.00 | 0.00 | 0.00 | 32 | 1020.4 |
| 20260509225003 | 63 | 133 | 5.0 | 11.0 | 0.00 | 0.00 | 0.00 | 30 | 1020.4 |
| 20260509224214 | 64 | 146 | 4.0 | 11.0 | 0.00 | 0.00 | 0.00 | 31 | 1020.4 |
| 20260509223003 | 63 | 123 | 4.0 | 8.0 | 0.00 | 0.00 | 0.00 | 31 | 1020.6 |
| 20260509222003 | 64 | 152 | 2.0 | 7.0 | 0.00 | 0.00 | 0.00 | 30 | 1020.6 |
| 20260509221214 | 63 | 111 | 2.0 | 9.0 | 0.00 | 0.00 | 0.00 | 30 | 1020.7 |
| 20260509220214 | 63 | 152 | 3.0 | 9.0 | 0.00 | 0.00 | 0.00 | 29 | 1020.8 |
| 20260509215003 | 63 | 148 | 3.0 | 8.0 | 0.00 | 0.00 | 0.00 | 28 | 1020.8 |
| 20260509214003 | 63 | 171 | 4.0 | 10.0 | 0.00 | 0.00 | 0.00 | 29 | 1020.9 |
| 20260509213003 | 62 | 116 | 4.0 | 9.0 | 0.00 | 0.00 | 0.00 | 29 | 1020.9 |
| 20260509212003 | 63 | 112 | 4.0 | 10.0 | 0.00 | 0.00 | 0.00 | 30 | 1021.0 |
| 20260509211003 | 63 | 156 | 2.0 | 11.0 | 0.00 | 0.00 | 0.00 | 29 | 1021.1 |
| 20260509210003 | 62 | 161 | 3.0 | 8.0 | 0.00 | 0.00 | 0.00 | 29 | 1021.3 |
| 20260509205213 | 62 | 115 | 4.0 | 10.0 | 0.00 | 0.00 | 0.00 | 30 | 1021.2 |
| 20260509204003 | 62 | 151 | 2.0 | 9.0 | 0.00 | 0.00 | 0.00 | 32 | 1021.3 |
| 20260509203003 | 62 | 127 | 5.0 | 10.0 | 0.00 | 0.00 | 0.00 | 30 | 1021.2 |
| 20260509202003 | 61 | 115 | 5.0 | 12.0 | 0.00 | 0.00 | 0.00 | 33 | 1021.2 |
| 20260509201003 | 61 | 172 | 4.0 | 10.0 | 0.00 | 0.00 | 0.00 | 32 | 1021.3 |
| 20260509200003 | 61 | 162 | 5.0 | 13.0 | 0.00 | 0.00 | 0.00 | 30 | 1021.3 |
| 20260509195003 | 60 | 126 | 5.0 | 12.0 | 0.00 | 0.00 | 0.00 | 33 | 1021.3 |
| 20260509194003 | 60 | 125 | 6.0 | 11.0 | 0.00 | 0.00 | 0.00 | 35 | 1021.3 |
| 20260509193004 | 59 | 134 | 6.0 | 10.0 | 0.00 | 0.00 | 0.00 | 34 | 1021.4 |